datetime,flow
1930-10-01,700.0
1930-10-02,692.0
1930-10-03,692.0
1930-10-04,692.0
1930-10-05,692.0
1930-10-06,692.0
1930-10-07,692.0
1930-10-08,692.0
1930-10-09,692.0
1930-10-10,692.0
1930-10-11,692.0
1930-10-12,692.0
1930-10-13,692.0
1930-10-14,692.0
1930-10-15,692.0
1930-10-16,692.0
1930-10-17,692.0
1930-10-18,692.0
1930-10-19,692.0
1930-10-20,692.0
1930-10-21,692.0
1930-10-22,692.0
1930-10-23,692.0
1930-10-24,692.0
1930-10-25,692.0
1930-10-26,692.0
1930-10-27,692.0
1930-10-28,692.0
1930-10-29,692.0
1930-10-30,692.0
1930-10-31,692.0
1930-11-01,684.0
1930-11-02,684.0
1930-11-03,675.0
1930-11-04,675.0
1930-11-05,675.0
1930-11-06,675.0
1930-11-07,675.0
1930-11-08,675.0
1930-11-09,675.0
1930-11-10,675.0
1930-11-11,675.0
1930-11-12,675.0
1930-11-13,675.0
1930-11-14,675.0
1930-11-15,675.0
1930-11-16,675.0
1930-11-17,675.0
1930-11-18,675.0
1930-11-19,562.0
1930-11-20,0.0
1930-11-21,260.0
1930-11-22,658.0
1930-11-23,658.0
1930-11-24,709.0
1930-11-25,700.0
1930-11-26,692.0
1930-11-27,641.0
1930-11-28,641.0
1930-11-29,624.0
1930-11-30,607.0
1930-12-01,641.0
1930-12-02,624.0
1930-12-03,607.0
1930-12-04,607.0
1930-12-05,607.0
1930-12-06,607.0
1930-12-07,607.0
1930-12-08,624.0
1930-12-09,624.0
1930-12-10,624.0
1930-12-11,624.0
1930-12-12,607.0
1930-12-13,607.0
1930-12-14,607.0
1930-12-15,624.0
1930-12-16,624.0
1930-12-17,607.0
1930-12-18,607.0
1930-12-19,624.0
1930-12-20,155.0
1930-12-21,559.0
1930-12-22,559.0
1930-12-23,575.0
1930-12-24,575.0
1930-12-25,575.0
1930-12-26,575.0
1930-12-27,575.0
1930-12-28,178.0
1930-12-29,0.0
1930-12-30,0.0
1930-12-31,0.0
1931-01-01,0.0
1931-01-02,0.0
1931-01-03,0.0
1931-01-04,0.0
1931-01-05,0.0
1931-01-06,0.0
1931-01-07,0.0
1931-01-08,0.0
1931-01-09,0.0
1931-01-10,0.0
1931-01-11,0.0
1931-01-12,0.0
1931-01-13,0.0
1931-01-14,0.0
1931-01-15,0.0
1931-01-16,0.0
1931-01-17,0.0
1931-01-18,0.0
1931-01-19,0.0
1931-01-20,0.0
1931-01-21,0.0
1931-01-22,0.0
1931-01-23,0.0
1931-01-24,0.0
1931-01-25,0.0
1931-01-26,0.0
1931-01-27,0.0
1931-01-28,0.0
1931-01-29,0.0
1931-01-30,0.0
1931-01-31,0.0
1931-02-01,0.0
1931-02-02,0.0
1931-02-03,0.0
1931-02-04,0.0
1931-02-05,0.0
1931-02-06,0.0
1931-02-07,0.0
1931-02-08,0.0
1931-02-09,0.0
1931-02-10,0.0
1931-02-11,0.0
1931-02-12,0.0
1931-02-13,0.0
1931-02-14,0.0
1931-02-15,0.0
1931-02-16,0.0
1931-02-17,0.0
1931-02-18,0.0
1931-02-19,0.0
1931-02-20,0.0
1931-02-21,0.0
1931-02-22,0.0
1931-02-23,0.0
1931-02-24,0.0
1931-02-25,0.0
1931-02-26,0.0
1931-02-27,0.0
1931-02-28,0.0
1931-03-01,0.0
1931-03-02,0.0
1931-03-03,0.0
1931-03-04,0.0
1931-03-05,0.0
1931-03-06,0.0
1931-03-07,0.0
1931-03-08,0.0
1931-03-09,0.0
1931-03-10,0.0
1931-03-11,165.0
1931-03-12,418.0
1931-03-13,527.0
1931-03-14,575.0
1931-03-15,575.0
1931-03-16,527.0
1931-03-17,527.0
1931-03-18,559.0
1931-03-19,559.0
1931-03-20,559.0
1931-03-21,559.0
1931-03-22,559.0
1931-03-23,575.0
1931-03-24,575.0
1931-03-25,575.0
1931-03-26,575.0
1931-03-27,575.0
1931-03-28,575.0
1931-03-29,575.0
1931-03-30,591.0
1931-03-31,591.0
1931-04-01,591.0
1931-04-02,591.0
1931-04-03,591.0
1931-04-04,591.0
1931-04-05,607.0
1931-04-06,527.0
1931-04-07,575.0
1931-04-08,607.0
1931-04-09,607.0
1931-04-10,607.0
1931-04-11,607.0
1931-04-12,607.0
1931-04-13,607.0
1931-04-14,607.0
1931-04-15,607.0
1931-04-16,607.0
1931-04-17,607.0
1931-04-18,607.0
1931-04-19,607.0
1931-04-20,607.0
1931-04-21,607.0
1931-04-22,607.0
1931-04-23,607.0
1931-04-24,607.0
1931-04-25,607.0
1931-04-26,607.0
1931-04-27,607.0
1931-04-28,607.0
1931-04-29,607.0
1931-04-30,607.0
1931-05-01,607.0
1931-05-02,607.0
1931-05-03,607.0
1931-05-04,607.0
1931-05-05,607.0
1931-05-06,607.0
1931-05-07,607.0
1931-05-08,607.0
1931-05-09,607.0
1931-05-10,607.0
1931-05-11,607.0
1931-05-12,607.0
1931-05-13,607.0
1931-05-14,607.0
1931-05-15,607.0
1931-05-16,607.0
1931-05-17,607.0
1931-05-18,607.0
1931-05-19,607.0
1931-05-20,607.0
1931-05-21,591.0
1931-05-22,543.0
1931-05-23,607.0
1931-05-24,607.0
1931-05-25,607.0
1931-05-26,607.0
1931-05-27,607.0
1931-05-28,607.0
1931-05-29,607.0
1931-05-30,607.0
1931-05-31,607.0
1931-06-01,607.0
1931-06-02,607.0
1931-06-03,607.0
1931-06-04,607.0
1931-06-05,607.0
1931-06-06,607.0
1931-06-07,607.0
1931-06-08,607.0
1931-06-09,607.0
1931-06-10,607.0
1931-06-11,599.0
1931-06-12,607.0
1931-06-13,607.0
1931-06-14,607.0
1931-06-15,607.0
1931-06-16,607.0
1931-06-17,607.0
1931-06-18,607.0
1931-06-19,607.0
1931-06-20,607.0
1931-06-21,607.0
1931-06-22,607.0
1931-06-23,607.0
1931-06-24,607.0
1931-06-25,607.0
1931-06-26,607.0
1931-06-27,607.0
1931-06-28,607.0
1931-06-29,559.0
1931-06-30,575.0
1931-07-01,607.0
1931-07-02,607.0
1931-07-03,607.0
1931-07-04,317.0
1931-07-05,527.0
1931-07-06,607.0
1931-07-07,607.0
1931-07-08,591.0
1931-07-09,511.0
1931-07-10,388.0
1931-07-11,345.0
1931-07-12,331.0
1931-07-13,331.0
1931-07-14,291.0
1931-07-15,278.0
1931-07-16,265.0
1931-07-17,265.0
1931-07-18,265.0
1931-07-19,240.0
1931-07-20,291.0
1931-07-21,206.0
1931-07-22,175.0
1931-07-23,175.0
1931-07-24,175.0
1931-07-25,185.0
1931-07-26,175.0
1931-07-27,185.0
1931-07-28,185.0
1931-07-29,359.0
1931-07-30,252.0
1931-07-31,217.0
1931-08-01,495.0
1931-08-02,359.0
1931-08-03,252.0
1931-08-04,228.0
1931-08-05,228.0
1931-08-06,252.0
1931-08-07,433.0
1931-08-08,278.0
1931-08-09,331.0
1931-08-10,304.0
1931-08-11,278.0
1931-08-12,291.0
1931-08-13,265.0
1931-08-14,228.0
1931-08-15,206.0
1931-08-16,195.0
1931-08-17,185.0
1931-08-18,228.0
1931-08-19,217.0
1931-08-20,228.0
1931-08-21,228.0
1931-08-22,195.0
1931-08-23,195.0
1931-08-24,185.0
1931-08-25,175.0
1931-08-26,175.0
1931-08-27,175.0
1931-08-28,175.0
1931-08-29,195.0
1931-08-30,185.0
1931-08-31,195.0
1931-09-01,217.0
1931-09-02,304.0
1931-09-03,252.0
1931-09-04,217.0
1931-09-05,206.0
1931-09-06,206.0
1931-09-07,206.0
1931-09-08,291.0
1931-09-09,217.0
1931-09-10,217.0
1931-09-11,217.0
1931-09-12,217.0
1931-09-13,206.0
1931-09-14,217.0
1931-09-15,228.0
1931-09-16,317.0
1931-09-17,252.0
1931-09-18,240.0
1931-09-19,265.0
1931-09-20,418.0
1931-09-21,463.0
1931-09-22,463.0
1931-09-23,463.0
1931-09-24,479.0
1931-09-25,495.0
1931-09-26,495.0
1931-09-27,495.0
1931-09-28,495.0
1931-09-29,495.0
1931-09-30,495.0
1931-10-01,
1931-10-02,
1931-10-03,
1931-10-04,
1931-10-05,
1931-10-06,
1931-10-07,
1931-10-08,
1931-10-09,
1931-10-10,
1931-10-11,
1931-10-12,
1931-10-13,
1931-10-14,
1931-10-15,
1931-10-16,
1931-10-17,
1931-10-18,
1931-10-19,
1931-10-20,
1931-10-21,
1931-10-22,
1931-10-23,
1931-10-24,
1931-10-25,
1931-10-26,
1931-10-27,
1931-10-28,
1931-10-29,
1931-10-30,
1931-10-31,
1931-11-01,
1931-11-02,
1931-11-03,
1931-11-04,
1931-11-05,
1931-11-06,
1931-11-07,
1931-11-08,
1931-11-09,
1931-11-10,
1931-11-11,
1931-11-12,
1931-11-13,
1931-11-14,
1931-11-15,
1931-11-16,
1931-11-17,
1931-11-18,
1931-11-19,
1931-11-20,
1931-11-21,
1931-11-22,
1931-11-23,
1931-11-24,
1931-11-25,
1931-11-26,
1931-11-27,
1931-11-28,
1931-11-29,
1931-11-30,
1931-12-01,
1931-12-02,
1931-12-03,
1931-12-04,
1931-12-05,
1931-12-06,
1931-12-07,
1931-12-08,
1931-12-09,
1931-12-10,
1931-12-11,
1931-12-12,
1931-12-13,
1931-12-14,
1931-12-15,
1931-12-16,
1931-12-17,
1931-12-18,
1931-12-19,
1931-12-20,
1931-12-21,
1931-12-22,
1931-12-23,
1931-12-24,
1931-12-25,
1931-12-26,
1931-12-27,
1931-12-28,
1931-12-29,
1931-12-30,
1931-12-31,
1932-01-01,
1932-01-02,
1932-01-03,
1932-01-04,
1932-01-05,
1932-01-06,
1932-01-07,
1932-01-08,
1932-01-09,
1932-01-10,
1932-01-11,
1932-01-12,
1932-01-13,
1932-01-14,
1932-01-15,
1932-01-16,
1932-01-17,
1932-01-18,
1932-01-19,
1932-01-20,
1932-01-21,
1932-01-22,
1932-01-23,
1932-01-24,
1932-01-25,
1932-01-26,
1932-01-27,
1932-01-28,
1932-01-29,
1932-01-30,
1932-01-31,
1932-02-01,
1932-02-02,
1932-02-03,
1932-02-04,
1932-02-05,
1932-02-06,
1932-02-07,
1932-02-08,
1932-02-09,
1932-02-10,
1932-02-11,
1932-02-12,
1932-02-13,
1932-02-14,
1932-02-15,
1932-02-16,
1932-02-17,
1932-02-18,
1932-02-19,
1932-02-20,
1932-02-21,
1932-02-22,
1932-02-23,
1932-02-24,
1932-02-25,
1932-02-26,
1932-02-27,
1932-02-28,
1932-02-29,
1932-03-01,
1932-03-02,
1932-03-03,
1932-03-04,
1932-03-05,
1932-03-06,
1932-03-07,
1932-03-08,
1932-03-09,
1932-03-10,
1932-03-11,
1932-03-12,
1932-03-13,
1932-03-14,
1932-03-15,
1932-03-16,
1932-03-17,
1932-03-18,
1932-03-19,
1932-03-20,
1932-03-21,
1932-03-22,
1932-03-23,
1932-03-24,
1932-03-25,
1932-03-26,
1932-03-27,
1932-03-28,
1932-03-29,
1932-03-30,
1932-03-31,
1932-04-01,
1932-04-02,
1932-04-03,
1932-04-04,
1932-04-05,
1932-04-06,
1932-04-07,
1932-04-08,
1932-04-09,
1932-04-10,
1932-04-11,
1932-04-12,
1932-04-13,
1932-04-14,
1932-04-15,
1932-04-16,
1932-04-17,
1932-04-18,
1932-04-19,
1932-04-20,
1932-04-21,
1932-04-22,
1932-04-23,
1932-04-24,
1932-04-25,
1932-04-26,
1932-04-27,
1932-04-28,
1932-04-29,
1932-04-30,
1932-05-01,559.0
1932-05-02,607.0
1932-05-03,624.0
1932-05-04,624.0
1932-05-05,624.0
1932-05-06,624.0
1932-05-07,624.0
1932-05-08,591.0
1932-05-09,624.0
1932-05-10,624.0
1932-05-11,624.0
1932-05-12,624.0
1932-05-13,624.0
1932-05-14,632.0
1932-05-15,641.0
1932-05-16,641.0
1932-05-17,641.0
1932-05-18,650.0
1932-05-19,650.0
1932-05-20,650.0
1932-05-21,650.0
1932-05-22,650.0
1932-05-23,658.0
1932-05-24,700.0
1932-05-25,658.0
1932-05-26,658.0
1932-05-27,658.0
1932-05-28,658.0
1932-05-29,658.0
1932-05-30,658.0
1932-05-31,658.0
1932-06-01,641.0
1932-06-02,624.0
1932-06-03,616.0
1932-06-04,675.0
1932-06-05,675.0
1932-06-06,658.0
1932-06-07,641.0
1932-06-08,692.0
1932-06-09,692.0
1932-06-10,692.0
1932-06-11,692.0
1932-06-12,692.0
1932-06-13,692.0
1932-06-14,709.0
1932-06-15,700.0
1932-06-16,726.0
1932-06-17,700.0
1932-06-18,700.0
1932-06-19,700.0
1932-06-20,700.0
1932-06-21,718.0
1932-06-22,700.0
1932-06-23,718.0
1932-06-24,709.0
1932-06-25,709.0
1932-06-26,743.0
1932-06-27,709.0
1932-06-28,709.0
1932-06-29,692.0
1932-06-30,675.0
1932-07-01,641.0
1932-07-02,709.0
1932-07-03,709.0
1932-07-04,709.0
1932-07-05,709.0
1932-07-06,684.0
1932-07-07,591.0
1932-07-08,675.0
1932-07-09,709.0
1932-07-10,709.0
1932-07-11,709.0
1932-07-12,709.0
1932-07-13,709.0
1932-07-14,709.0
1932-07-15,709.0
1932-07-16,709.0
1932-07-17,709.0
1932-07-18,709.0
1932-07-19,709.0
1932-07-20,709.0
1932-07-21,700.0
1932-07-22,709.0
1932-07-23,709.0
1932-07-24,709.0
1932-07-25,709.0
1932-07-26,709.0
1932-07-27,709.0
1932-07-28,709.0
1932-07-29,709.0
1932-07-30,692.0
1932-07-31,709.0
1932-08-01,709.0
1932-08-02,709.0
1932-08-03,709.0
1932-08-04,709.0
1932-08-05,709.0
1932-08-06,709.0
1932-08-07,709.0
1932-08-08,709.0
1932-08-09,709.0
1932-08-10,675.0
1932-08-11,675.0
1932-08-12,658.0
1932-08-13,624.0
1932-08-14,575.0
1932-08-15,527.0
1932-08-16,463.0
1932-08-17,463.0
1932-08-18,463.0
1932-08-19,624.0
1932-08-20,575.0
1932-08-21,641.0
1932-08-22,658.0
1932-08-23,655.0
1932-08-24,692.0
1932-08-25,675.0
1932-08-26,658.0
1932-08-27,658.0
1932-08-28,709.0
1932-08-29,709.0
1932-08-30,709.0
1932-08-31,709.0
1932-09-01,709.0
1932-09-02,709.0
1932-09-03,709.0
1932-09-04,700.0
1932-09-05,684.0
1932-09-06,664.0
1932-09-07,650.0
1932-09-08,624.0
1932-09-09,575.0
1932-09-10,527.0
1932-09-11,519.0
1932-09-12,543.0
1932-09-13,519.0
1932-09-14,495.0
1932-09-15,511.0
1932-09-16,511.0
1932-09-17,471.0
1932-09-18,463.0
1932-09-19,471.0
1932-09-20,471.0
1932-09-21,479.0
1932-09-22,456.0
1932-09-23,448.0
1932-09-24,463.0
1932-09-25,543.0
1932-09-26,675.0
1932-09-27,743.0
1932-09-28,675.0
1932-09-29,675.0
1932-09-30,675.0
1932-10-01,743.0
1932-10-02,650.0
1932-10-03,658.0
1932-10-04,644.0
1932-10-05,624.0
1932-10-06,641.0
1932-10-07,641.0
1932-10-08,624.0
1932-10-09,616.0
1932-10-10,591.0
1932-10-11,641.0
1932-10-12,624.0
1932-10-13,641.0
1932-10-14,650.0
1932-10-15,650.0
1932-10-16,591.0
1932-10-17,658.0
1932-10-18,650.0
1932-10-19,658.0
1932-10-20,641.0
1932-10-21,650.0
1932-10-22,658.0
1932-10-23,641.0
1932-10-24,650.0
1932-10-25,650.0
1932-10-26,644.0
1932-10-27,641.0
1932-10-28,650.0
1932-10-29,658.0
1932-10-30,641.0
1932-10-31,658.0
1932-11-01,650.0
1932-11-02,641.0
1932-11-03,641.0
1932-11-04,658.0
1932-11-05,658.0
1932-11-06,658.0
1932-11-07,650.0
1932-11-08,658.0
1932-11-09,650.0
1932-11-10,591.0
1932-11-11,591.0
1932-11-12,591.0
1932-11-13,575.0
1932-11-14,607.0
1932-11-15,607.0
1932-11-16,624.0
1932-11-17,607.0
1932-11-18,607.0
1932-11-19,607.0
1932-11-20,607.0
1932-11-21,607.0
1932-11-22,607.0
1932-11-23,607.0
1932-11-24,607.0
1932-11-25,607.0
1932-11-26,607.0
1932-11-27,607.0
1932-11-28,607.0
1932-11-29,607.0
1932-11-30,607.0
1932-12-01,650.0
1932-12-02,650.0
1932-12-03,658.0
1932-12-04,641.0
1932-12-05,172.0
1932-12-06,359.0
1932-12-07,591.0
1932-12-08,591.0
1932-12-09,641.0
1932-12-10,632.0
1932-12-11,641.0
1932-12-12,641.0
1932-12-13,607.0
1932-12-14,543.0
1932-12-15,641.0
1932-12-16,641.0
1932-12-17,632.0
1932-12-18,641.0
1932-12-19,641.0
1932-12-20,641.0
1932-12-21,641.0
1932-12-22,641.0
1932-12-23,743.0
1932-12-24,624.0
1932-12-25,
1932-12-26,
1932-12-27,
1932-12-28,
1932-12-29,
1932-12-30,
1932-12-31,
1933-01-01,
1933-01-02,
1933-01-03,
1933-01-04,
1933-01-05,
1933-01-06,
1933-01-07,
1933-01-08,
1933-01-09,
1933-01-10,
1933-01-11,
1933-01-12,
1933-01-13,
1933-01-14,
1933-01-15,
1933-01-16,
1933-01-17,
1933-01-18,
1933-01-19,
1933-01-20,
1933-01-21,
1933-01-22,
1933-01-23,
1933-01-24,
1933-01-25,
1933-01-26,
1933-01-27,
1933-01-28,
1933-01-29,
1933-01-30,
1933-01-31,
1933-02-01,
1933-02-02,
1933-02-03,
1933-02-04,
1933-02-05,
1933-02-06,
1933-02-07,
1933-02-08,
1933-02-09,
1933-02-10,
1933-02-11,
1933-02-12,
1933-02-13,
1933-02-14,
1933-02-15,
1933-02-16,
1933-02-17,
1933-02-18,
1933-02-19,
1933-02-20,
1933-02-21,
1933-02-22,
1933-02-23,
1933-02-24,
1933-02-25,
1933-02-26,
1933-02-27,
1933-02-28,
1933-03-01,
1933-03-02,
1933-03-03,
1933-03-04,
1933-03-05,
1933-03-06,
1933-03-07,
1933-03-08,
1933-03-09,
1933-03-10,
1933-03-11,
1933-03-12,
1933-03-13,
1933-03-14,
1933-03-15,
1933-03-16,
1933-03-17,
1933-03-18,
1933-03-19,
1933-03-20,
1933-03-21,
1933-03-22,
1933-03-23,
1933-03-24,
1933-03-25,
1933-03-26,
1933-03-27,
1933-03-28,
1933-03-29,
1933-03-30,
1933-03-31,
1933-04-01,
1933-04-02,
1933-04-03,
1933-04-04,
1933-04-05,
1933-04-06,
1933-04-07,
1933-04-08,
1933-04-09,
1933-04-10,
1933-04-11,
1933-04-12,
1933-04-13,
1933-04-14,
1933-04-15,
1933-04-16,
1933-04-17,
1933-04-18,
1933-04-19,
1933-04-20,
1933-04-21,
1933-04-22,
1933-04-23,
1933-04-24,
1933-04-25,
1933-04-26,
1933-04-27,
1933-04-28,
1933-04-29,
1933-04-30,
1933-05-01,
1933-05-02,
1933-05-03,
1933-05-04,
1933-05-05,
1933-05-06,
1933-05-07,
1933-05-08,
1933-05-09,
1933-05-10,
1933-05-11,
1933-05-12,
1933-05-13,
1933-05-14,
1933-05-15,
1933-05-16,
1933-05-17,
1933-05-18,
1933-05-19,
1933-05-20,
1933-05-21,
1933-05-22,
1933-05-23,
1933-05-24,
1933-05-25,
1933-05-26,
1933-05-27,
1933-05-28,
1933-05-29,
1933-05-30,
1933-05-31,
1933-06-01,641.0
1933-06-02,641.0
1933-06-03,641.0
1933-06-04,641.0
1933-06-05,641.0
1933-06-06,641.0
1933-06-07,641.0
1933-06-08,641.0
1933-06-09,599.0
1933-06-10,607.0
1933-06-11,641.0
1933-06-12,641.0
1933-06-13,641.0
1933-06-14,641.0
1933-06-15,624.0
1933-06-16,641.0
1933-06-17,641.0
1933-06-18,641.0
1933-06-19,641.0
1933-06-20,641.0
1933-06-21,607.0
1933-06-22,567.0
1933-06-23,632.0
1933-06-24,607.0
1933-06-25,591.0
1933-06-26,575.0
1933-06-27,658.0
1933-06-28,621.0
1933-06-29,410.0
1933-06-30,658.0
1933-07-01,658.0
1933-07-02,658.0
1933-07-03,632.0
1933-07-04,658.0
1933-07-05,658.0
1933-07-06,658.0
1933-07-07,658.0
1933-07-08,591.0
1933-07-09,650.0
1933-07-10,658.0
1933-07-11,658.0
1933-07-12,658.0
1933-07-13,658.0
1933-07-14,658.0
1933-07-15,658.0
1933-07-16,658.0
1933-07-17,658.0
1933-07-18,658.0
1933-07-19,658.0
1933-07-20,648.0
1933-07-21,559.0
1933-07-22,632.0
1933-07-23,448.0
1933-07-24,403.0
1933-07-25,373.0
1933-07-26,331.0
1933-07-27,278.0
1933-07-28,272.0
1933-07-29,217.0
1933-07-30,206.0
1933-07-31,373.0
1933-08-01,575.0
1933-08-02,433.0
1933-08-03,591.0
1933-08-04,641.0
1933-08-05,607.0
1933-08-06,495.0
1933-08-07,479.0
1933-08-08,624.0
1933-08-09,658.0
1933-08-10,641.0
1933-08-11,658.0
1933-08-12,658.0
1933-08-13,658.0
1933-08-14,607.0
1933-08-15,527.0
1933-08-16,433.0
1933-08-17,217.0
1933-08-18,265.0
1933-08-19,228.0
1933-08-20,373.0
1933-08-21,304.0
1933-08-22,278.0
1933-08-23,418.0
1933-08-24,359.0
1933-08-25,278.0
1933-08-26,252.0
1933-08-27,291.0
1933-08-28,418.0
1933-08-29,359.0
1933-08-30,291.0
1933-08-31,278.0
1933-09-01,252.0
1933-09-02,265.0
1933-09-03,240.0
1933-09-04,291.0
1933-09-05,240.0
1933-09-06,217.0
1933-09-07,217.0
1933-09-08,217.0
1933-09-09,252.0
1933-09-10,291.0
1933-09-11,359.0
1933-09-12,373.0
1933-09-13,641.0
1933-09-14,641.0
1933-09-15,624.0
1933-09-16,624.0
1933-09-17,616.0
1933-09-18,575.0
1933-09-19,641.0
1933-09-20,641.0
1933-09-21,641.0
1933-09-22,641.0
1933-09-23,641.0
1933-09-24,624.0
1933-09-25,624.0
1933-09-26,624.0
1933-09-27,624.0
1933-09-28,641.0
1933-09-29,641.0
1933-09-30,632.0
1933-10-01,
1933-10-02,
1933-10-03,
1933-10-04,
1933-10-05,
1933-10-06,
1933-10-07,
1933-10-08,
1933-10-09,
1933-10-10,
1933-10-11,
1933-10-12,
1933-10-13,
1933-10-14,
1933-10-15,
1933-10-16,
1933-10-17,
1933-10-18,
1933-10-19,
1933-10-20,
1933-10-21,
1933-10-22,
1933-10-23,
1933-10-24,
1933-10-25,
1933-10-26,
1933-10-27,
1933-10-28,
1933-10-29,
1933-10-30,
1933-10-31,
1933-11-01,
1933-11-02,
1933-11-03,
1933-11-04,
1933-11-05,
1933-11-06,
1933-11-07,
1933-11-08,
1933-11-09,
1933-11-10,
1933-11-11,
1933-11-12,
1933-11-13,
1933-11-14,
1933-11-15,
1933-11-16,
1933-11-17,
1933-11-18,
1933-11-19,
1933-11-20,
1933-11-21,
1933-11-22,
1933-11-23,
1933-11-24,
1933-11-25,
1933-11-26,
1933-11-27,
1933-11-28,
1933-11-29,
1933-11-30,
1933-12-01,
1933-12-02,
1933-12-03,
1933-12-04,
1933-12-05,
1933-12-06,
1933-12-07,
1933-12-08,
1933-12-09,
1933-12-10,
1933-12-11,
1933-12-12,
1933-12-13,
1933-12-14,
1933-12-15,
1933-12-16,
1933-12-17,
1933-12-18,
1933-12-19,
1933-12-20,
1933-12-21,
1933-12-22,
1933-12-23,
1933-12-24,
1933-12-25,
1933-12-26,
1933-12-27,
1933-12-28,
1933-12-29,
1933-12-30,
1933-12-31,
1934-01-01,
1934-01-02,
1934-01-03,
1934-01-04,
1934-01-05,
1934-01-06,
1934-01-07,
1934-01-08,
1934-01-09,
1934-01-10,
1934-01-11,
1934-01-12,
1934-01-13,
1934-01-14,
1934-01-15,
1934-01-16,
1934-01-17,
1934-01-18,
1934-01-19,
1934-01-20,
1934-01-21,
1934-01-22,
1934-01-23,
1934-01-24,
1934-01-25,
1934-01-26,
1934-01-27,
1934-01-28,
1934-01-29,
1934-01-30,
1934-01-31,
1934-02-01,
1934-02-02,
1934-02-03,
1934-02-04,
1934-02-05,
1934-02-06,
1934-02-07,
1934-02-08,
1934-02-09,
1934-02-10,
1934-02-11,
1934-02-12,
1934-02-13,
1934-02-14,
1934-02-15,
1934-02-16,
1934-02-17,
1934-02-18,
1934-02-19,
1934-02-20,
1934-02-21,
1934-02-22,
1934-02-23,
1934-02-24,
1934-02-25,
1934-02-26,
1934-02-27,
1934-02-28,
1934-03-01,
1934-03-02,
1934-03-03,
1934-03-04,
1934-03-05,
1934-03-06,
1934-03-07,
1934-03-08,
1934-03-09,
1934-03-10,
1934-03-11,
1934-03-12,607.0
1934-03-13,607.0
1934-03-14,607.0
1934-03-15,607.0
1934-03-16,607.0
1934-03-17,607.0
1934-03-18,624.0
1934-03-19,624.0
1934-03-20,591.0
1934-03-21,624.0
1934-03-22,624.0
1934-03-23,591.0
1934-03-24,607.0
1934-03-25,591.0
1934-03-26,511.0
1934-03-27,511.0
1934-03-28,448.0
1934-03-29,373.0
1934-03-30,345.0
1934-03-31,304.0
1934-04-01,345.0
1934-04-02,527.0
1934-04-03,345.0
1934-04-04,418.0
1934-04-05,559.0
1934-04-06,463.0
1934-04-07,403.0
1934-04-08,331.0
1934-04-09,291.0
1934-04-10,324.0
1934-04-11,433.0
1934-04-12,591.0
1934-04-13,624.0
1934-04-14,624.0
1934-04-15,624.0
1934-04-16,624.0
1934-04-17,624.0
1934-04-18,624.0
1934-04-19,624.0
1934-04-20,624.0
1934-04-21,624.0
1934-04-22,641.0
1934-04-23,624.0
1934-04-24,624.0
1934-04-25,641.0
1934-04-26,641.0
1934-04-27,641.0
1934-04-28,624.0
1934-04-29,641.0
1934-04-30,641.0
1934-05-01,641.0
1934-05-02,641.0
1934-05-03,641.0
1934-05-04,641.0
1934-05-05,641.0
1934-05-06,641.0
1934-05-07,641.0
1934-05-08,641.0
1934-05-09,641.0
1934-05-10,641.0
1934-05-11,641.0
1934-05-12,641.0
1934-05-13,641.0
1934-05-14,641.0
1934-05-15,607.0
1934-05-16,591.0
1934-05-17,641.0
1934-05-18,641.0
1934-05-19,641.0
1934-05-20,641.0
1934-05-21,641.0
1934-05-22,641.0
1934-05-23,641.0
1934-05-24,641.0
1934-05-25,641.0
1934-05-26,641.0
1934-05-27,641.0
1934-05-28,641.0
1934-05-29,641.0
1934-05-30,641.0
1934-05-31,641.0
1934-06-01,641.0
1934-06-02,641.0
1934-06-03,641.0
1934-06-04,641.0
1934-06-05,641.0
1934-06-06,641.0
1934-06-07,641.0
1934-06-08,641.0
1934-06-09,641.0
1934-06-10,599.0
1934-06-11,433.0
1934-06-12,388.0
1934-06-13,291.0
1934-06-14,228.0
1934-06-15,240.0
1934-06-16,217.0
1934-06-17,217.0
1934-06-18,206.0
1934-06-19,206.0
1934-06-20,195.0
1934-06-21,185.0
1934-06-22,185.0
1934-06-23,172.0
1934-06-24,160.0
1934-06-25,195.0
1934-06-26,240.0
1934-06-27,252.0
1934-06-28,217.0
1934-06-29,175.0
1934-06-30,145.0
1934-07-01,135.0
1934-07-02,135.0
1934-07-03,125.0
1934-07-04,125.0
1934-07-05,115.0
1934-07-06,155.0
1934-07-07,155.0
1934-07-08,145.0
1934-07-09,125.0
1934-07-10,115.0
1934-07-11,115.0
1934-07-12,115.0
1934-07-13,115.0
1934-07-14,115.0
1934-07-15,95.0
1934-07-16,95.0
1934-07-17,95.0
1934-07-18,95.0
1934-07-19,95.0
1934-07-20,86.0
1934-07-21,115.0
1934-07-22,217.0
1934-07-23,175.0
1934-07-24,145.0
1934-07-25,140.0
1934-07-26,155.0
1934-07-27,175.0
1934-07-28,155.0
1934-07-29,135.0
1934-07-30,115.0
1934-07-31,125.0
1934-08-01,115.0
1934-08-02,125.0
1934-08-03,115.0
1934-08-04,95.0
1934-08-05,217.0
1934-08-06,86.0
1934-08-07,86.0
1934-08-08,105.0
1934-08-09,86.0
1934-08-10,206.0
1934-08-11,125.0
1934-08-12,95.0
1934-08-13,86.0
1934-08-14,95.0
1934-08-15,95.0
1934-08-16,228.0
1934-08-17,155.0
1934-08-18,105.0
1934-08-19,95.0
1934-08-20,105.0
1934-08-21,155.0
1934-08-22,125.0
1934-08-23,105.0
1934-08-24,115.0
1934-08-25,105.0
1934-08-26,95.0
1934-08-27,95.0
1934-08-28,105.0
1934-08-29,86.0
1934-08-30,86.0
1934-08-31,115.0
1934-09-01,115.0
1934-09-02,115.0
1934-09-03,125.0
1934-09-04,130.0
1934-09-05,90.0
1934-09-06,80.0
1934-09-07,70.0
1934-09-08,66.0
1934-09-09,175.0
1934-09-10,317.0
1934-09-11,291.0
1934-09-12,252.0
1934-09-13,265.0
1934-09-14,265.0
1934-09-15,260.0
1934-09-16,278.0
1934-09-17,291.0
1934-09-18,304.0
1934-09-19,345.0
1934-09-20,359.0
1934-09-21,304.0
1934-09-22,240.0
1934-09-23,278.0
1934-09-24,291.0
1934-09-25,200.0
1934-09-26,479.0
1934-09-27,317.0
1934-09-28,240.0
1934-09-29,124.0
1934-09-30,99.0
1934-10-01,199.0
1934-10-02,228.0
1934-10-03,146.0
1934-10-04,175.0
1934-10-05,175.0
1934-10-06,175.0
1934-10-07,175.0
1934-10-08,175.0
1934-10-09,175.0
1934-10-10,175.0
1934-10-11,175.0
1934-10-12,175.0
1934-10-13,175.0
1934-10-14,175.0
1934-10-15,317.0
1934-10-16,291.0
1934-10-17,291.0
1934-10-18,345.0
1934-10-19,345.0
1934-10-20,278.0
1934-10-21,278.0
1934-10-22,278.0
1934-10-23,278.0
1934-10-24,278.0
1934-10-25,278.0
1934-10-26,265.0
1934-10-27,265.0
1934-10-28,221.0
1934-10-29,265.0
1934-10-30,265.0
1934-10-31,265.0
1934-11-01,243.0
1934-11-02,268.0
1934-11-03,268.0
1934-11-04,268.0
1934-11-05,362.0
1934-11-06,365.0
1934-11-07,365.0
1934-11-08,394.0
1934-11-09,424.0
1934-11-10,409.0
1934-11-11,420.0
1934-11-12,412.0
1934-11-13,412.0
1934-11-14,427.0
1934-11-15,412.0
1934-11-16,415.0
1934-11-17,415.0
1934-11-18,430.0
1934-11-19,460.0
1934-11-20,460.0
1934-11-21,463.0
1934-11-22,495.0
1934-11-23,495.0
1934-11-24,495.0
1934-11-25,527.0
1934-11-26,529.0
1934-11-27,529.0
1934-11-28,529.0
1934-11-29,497.0
1934-11-30,529.0
1934-12-01,530.0
1934-12-02,530.0
1934-12-03,500.0
1934-12-04,480.0
1934-12-05,480.0
1934-12-06,500.0
1934-12-07,500.0
1934-12-08,520.0
1934-12-09,530.0
1934-12-10,520.0
1934-12-11,520.0
1934-12-12,520.0
1934-12-13,530.0
1934-12-14,549.0
1934-12-15,549.0
1934-12-16,549.0
1934-12-17,549.0
1934-12-18,517.0
1934-12-19,533.0
1934-12-20,517.0
1934-12-21,527.0
1934-12-22,537.0
1934-12-23,569.0
1934-12-24,569.0
1934-12-25,569.0
1934-12-26,561.0
1934-12-27,569.0
1934-12-28,553.0
1934-12-29,569.0
1934-12-30,569.0
1934-12-31,577.0
1935-01-01,572.0
1935-01-02,520.0
1935-01-03,480.0
1935-01-04,524.0
1935-01-05,508.0
1935-01-06,480.0
1935-01-07,461.0
1935-01-08,500.0
1935-01-09,572.0
1935-01-10,588.0
1935-01-11,572.0
1935-01-12,572.0
1935-01-13,572.0
1935-01-14,556.0
1935-01-15,572.0
1935-01-16,575.0
1935-01-17,575.0
1935-01-18,575.0
1935-01-19,559.0
1935-01-20,495.0
1935-01-21,479.0
1935-01-22,345.0
1935-01-23,380.0
1935-01-24,440.0